Terminal Aerodrome Forecast
Issued by NWS

Home | Current Version | Previous Version | Text Only | Print | Product List | Glossary On
Versions: 1 2 3 4 5 6 7 8 9 10 11 12 13 14 15 16 17 18 19 20 21 22 23 24 25 26
000
FTUS44 KLIX 250155 AAA
TAFHUM
TAF AMD
KHUM 250155Z 2502/2524 36004KT P6SM SCT035
     FM250900 00000KT P6SM SCT200
     FM251700 03006KT P6SM SHRA VCTS BKN050CB=

USA.gov is the U.S. government's official web portal to all federal, state and local government web resources and services.